Wahpeton, MN

9:09 PM CDT on April 26, 2017 (GMT -0500)
Stern

Weather History for KBWP - November, 2012

Change the Weather History Date:

Tuesday, November 6, 2012

  Actual Average (KFFM) Record (KFFM)
Temperature  
Mean Temperature 38 °F -  
Max Temperature 42 °F 41 °F 69 °F (2016)
Min Temperature 33 °F 24 °F -3 °F (1991)
Degree Days  
Heating Degree Days 28    
Moisture  
Dew Point 33 °F    
Average Humidity 80    
Maximum Humidity 93    
Minimum Humidity 66    
Precipitation  
Precipitation 0.01 in - - ()
Sea Level Pressure  
Sea Level Pressure 29.89 in    
Wind  
Wind Speed 14 mph (NW)    
Max Wind Speed 26 mph    
Max Gust Speed 37 mph    
Visibility 10 miles    
Events      
Averages and records for this station are not official NWS values.
T = Trace of Precipitation, MM = Missing Value Source: NWS Daily Summary

Daily Weather History Graph

Daily Weather History Graph

Search for Another Location

Airport or City:

Trip Planner

Search our weather history database for the weather conditions in past years. The results will help you decide how hot, cold, wet, or windy it might be!

Date:

Astronomy

Nov. 06, 2012 Rise Set
Actual Time 7:15 AM CST 5:04 PM CST
Civil Twilight 6:43 AM CST 5:35 PM CST
Nautical Twilight 6:07 AM CST 6:11 PM CST
Astronomical Twilight 5:32 AM CST 6:46 PM CST
Moon 11:48 PM CST (11/6) 1:05 PM CST (11/6)
Length of Visible Light 10h 52m
Length of Day
9h 48m
Waning Gibbous, 53% of the Moon is Illuminated
Nov 6
Waning Gibbous
Nov 6
Last Quarter
Nov 13
New
Nov 20
First Quarter
Nov 28
Full

Hourly Weather History & Observations

Time (CST) Temp. Windchill Dew Point Humidity Pressure Visibility Wind Dir Wind Speed Gust Speed Precip Events Conditions
12:15 AM 35.6 °F 27.1 °F 33.8 °F 93% 29.79 in 3.0 mi South 12.7 mph - N/A   Overcast
12:35 AM 35.6 °F 27.1 °F 33.8 °F 93% 29.78 in 4.0 mi SSW 12.7 mph - 0.01 in   Overcast
12:55 AM 37.4 °F 29.8 °F 35.6 °F 93% 29.78 in 5.0 mi SSW 11.5 mph - 0.01 in   Overcast
1:15 AM 37.4 °F 31.4 °F 35.6 °F 93% 29.77 in 5.0 mi SSW 8.1 mph - N/A   Overcast
1:35 AM 37.4 °F 30.8 °F 35.6 °F 93% 29.76 in 7.0 mi WSW 9.2 mph - N/A   Overcast
1:55 AM 37.4 °F 31.4 °F 35.6 °F 93% 29.76 in 7.0 mi West 8.1 mph - N/A   Overcast
2:15 AM 35.6 °F 27.5 °F 33.8 °F 93% 29.76 in 7.0 mi WNW 11.5 mph - N/A   Scattered Clouds
2:35 AM 37.4 °F 30.3 °F 35.6 °F 93% 29.77 in 10.0 mi WNW 10.4 mph - N/A   Clear
2:55 AM 35.6 °F 27.1 °F 33.8 °F 93% 29.77 in 10.0 mi WNW 12.7 mph - N/A   Clear
3:15 AM 37.4 °F 28.5 °F 33.8 °F 87% 29.78 in 10.0 mi WNW 15.0 mph - N/A   Clear
3:35 AM 35.6 °F 27.5 °F 33.8 °F 93% 29.78 in 10.0 mi WNW 11.5 mph - N/A   Clear
3:55 AM 35.6 °F 27.5 °F 32.0 °F 87% 29.78 in 10.0 mi WNW 11.5 mph - N/A   Clear
4:15 AM 33.8 °F 26.4 °F 32.0 °F 93% 29.78 in 10.0 mi West 9.2 mph - N/A   Clear
4:35 AM 33.8 °F 25.8 °F 32.0 °F 93% 29.79 in 10.0 mi WNW 10.4 mph - N/A   Clear
4:55 AM 33.8 °F 25.3 °F 32.0 °F 93% 29.79 in 10.0 mi WNW 11.5 mph - N/A   Clear
5:15 AM 33.8 °F 25.8 °F 32.0 °F 93% 29.79 in 10.0 mi WNW 10.4 mph - N/A   Clear
5:35 AM 33.8 °F 25.8 °F 32.0 °F 93% 29.80 in 10.0 mi WNW 10.4 mph - N/A   Scattered Clouds
5:55 AM 33.8 °F 25.8 °F 32.0 °F 93% 29.81 in 10.0 mi WNW 10.4 mph - N/A   Mostly Cloudy
6:15 AM 33.8 °F 24.8 °F 32.0 °F 93% 29.81 in 10.0 mi WNW 12.7 mph - N/A   Overcast
6:35 AM 35.6 °F 26.6 °F 32.0 °F 87% 29.81 in 10.0 mi WNW 13.8 mph - N/A   Overcast
6:55 AM 35.6 °F 27.5 °F 32.0 °F 87% 29.81 in 10.0 mi NW 11.5 mph - N/A   Overcast
7:15 AM 35.6 °F 28.0 °F 32.0 °F 87% 29.83 in 10.0 mi NW 10.4 mph - N/A   Overcast
7:35 AM 35.6 °F 26.6 °F 32.0 °F 87% 29.82 in 10.0 mi WNW 13.8 mph - N/A   Overcast
7:55 AM 37.4 °F 29.3 °F 32.0 °F 81% 29.83 in 10.0 mi WNW 12.7 mph - N/A   Overcast
8:15 AM 37.4 °F 27.8 °F 33.8 °F 87% 29.84 in 10.0 mi WNW 17.3 mph - N/A   Overcast
8:35 AM 39.2 °F 29.8 °F 33.8 °F 81% 29.84 in 10.0 mi NW 18.4 mph - N/A   Overcast
8:55 AM 39.2 °F 29.6 °F 33.8 °F 81% 29.84 in 10.0 mi NW 19.6 mph 25.3 mph N/A   Overcast
9:15 AM 41.0 °F 31.1 °F 33.8 °F 76% 29.84 in 10.0 mi NW 23.0 mph 29.9 mph N/A   Overcast
9:35 AM 41.0 °F 31.1 °F 33.8 °F 76% 29.84 in 10.0 mi NW 23.0 mph 31.1 mph N/A   Overcast
9:55 AM 41.0 °F 30.5 °F 33.8 °F 76% 29.84 in 10.0 mi NW 26.5 mph 33.4 mph N/A   Overcast
10:15 AM 41.0 °F 30.7 °F 33.8 °F 76% 29.85 in 10.0 mi NW 25.3 mph 33.4 mph N/A   Overcast
10:35 AM 42.8 °F 33.3 °F 33.8 °F 70% 29.85 in 10.0 mi NW 24.2 mph 34.5 mph N/A   Overcast
10:55 AM 42.8 °F 33.1 °F 33.8 °F 70% 29.86 in 10.0 mi NW 25.3 mph 33.4 mph N/A   Overcast
11:15 AM 42.8 °F 34.0 °F 33.8 °F 70% 29.87 in 10.0 mi NW 20.7 mph 29.9 mph N/A   Overcast
11:35 AM 42.8 °F 32.9 °F 33.8 °F 70% 29.86 in 10.0 mi NW 26.5 mph 33.4 mph N/A   Overcast
11:55 AM 42.8 °F 33.5 °F 33.8 °F 70% 29.87 in 10.0 mi NW 23.0 mph 32.2 mph N/A   Overcast
12:15 PM 42.8 °F 33.1 °F 33.8 °F 70% 29.87 in 10.0 mi NNW 25.3 mph 36.8 mph N/A   Overcast
12:35 PM 42.8 °F 34.5 °F 33.8 °F 70% 29.87 in 10.0 mi NNW 18.4 mph 29.9 mph N/A   Overcast
12:55 PM 42.8 °F 33.3 °F 33.8 °F 70% 29.87 in 10.0 mi NNW 24.2 mph 33.4 mph N/A   Overcast
1:15 PM 42.8 °F 33.8 °F 33.8 °F 70% 29.87 in 10.0 mi NNW 21.9 mph 33.4 mph N/A   Overcast
1:35 PM 42.8 °F 33.3 °F 33.8 °F 70% 29.88 in 10.0 mi NW 24.2 mph 32.2 mph N/A   Overcast
1:55 PM 42.8 °F 33.8 °F 33.8 °F 70% 29.88 in 10.0 mi NNW 21.9 mph 26.5 mph N/A   Overcast
2:15 PM 42.8 °F 34.0 °F 33.8 °F 70% 29.89 in 10.0 mi NNW 20.7 mph 32.2 mph N/A   Overcast
2:35 PM 42.8 °F 35.4 °F 33.8 °F 70% 29.90 in 10.0 mi NNW 15.0 mph 25.3 mph N/A   Overcast
2:55 PM 42.8 °F 34.3 °F 33.8 °F 70% 29.91 in 10.0 mi NNW 19.6 mph 28.8 mph N/A   Overcast
3:15 PM 42.8 °F 35.1 °F 33.8 °F 70% 29.92 in 10.0 mi NNW 16.1 mph 24.2 mph N/A   Overcast
3:35 PM 42.8 °F 34.8 °F 33.8 °F 70% 29.93 in 10.0 mi NNW 17.3 mph 26.5 mph N/A   Overcast
3:55 PM 42.8 °F 35.1 °F 33.8 °F 70% 29.94 in 10.0 mi NNW 16.1 mph 27.6 mph N/A   Overcast
4:15 PM 42.8 °F 35.1 °F 33.8 °F 70% 29.94 in 10.0 mi NNW 16.1 mph 24.2 mph N/A   Overcast
4:35 PM 42.8 °F 34.5 °F 32.0 °F 66% 29.95 in 10.0 mi NNW 18.4 mph 32.2 mph N/A   Overcast
4:55 PM 42.8 °F 34.3 °F 32.0 °F 66% 29.96 in 10.0 mi NW 19.6 mph 26.5 mph N/A   Overcast
5:15 PM 42.8 °F 35.1 °F 32.0 °F 66% 29.97 in 10.0 mi NNW 16.1 mph 26.5 mph N/A   Overcast
5:35 PM 41.0 °F 32.5 °F 33.8 °F 76% 29.97 in 10.0 mi NNW 17.3 mph 23.0 mph N/A   Overcast
5:55 PM 41.0 °F 32.8 °F 33.8 °F 76% 29.98 in 10.0 mi NNW 16.1 mph 20.7 mph N/A   Overcast
6:15 PM 41.0 °F 32.8 °F 33.8 °F 76% 29.98 in 10.0 mi NNW 16.1 mph 19.6 mph N/A   Overcast
6:35 PM 41.0 °F 32.8 °F 33.8 °F 76% 29.99 in 10.0 mi NW 16.1 mph - N/A   Overcast
6:55 PM 41.0 °F 32.2 °F 33.8 °F 76% 29.99 in 10.0 mi NW 18.4 mph - N/A   Overcast
7:15 PM 41.0 °F 32.8 °F 33.8 °F 76% 30.00 in 10.0 mi NNW 16.1 mph 21.9 mph N/A   Overcast
7:35 PM 41.0 °F 33.1 °F 33.8 °F 76% 30.00 in 10.0 mi NNW 15.0 mph - N/A   Overcast
7:55 PM 41.0 °F 34.3 °F 33.8 °F 76% 30.01 in 10.0 mi NNW 11.5 mph 18.4 mph N/A   Overcast
8:15 PM 41.0 °F 34.3 °F 33.8 °F 76% 30.01 in 10.0 mi NNW 11.5 mph - N/A   Overcast
8:35 PM 41.0 °F 34.7 °F 33.8 °F 76% 30.01 in 10.0 mi NNW 10.4 mph 16.1 mph N/A   Overcast
8:55 PM 41.0 °F 34.7 °F 33.8 °F 76% 30.02 in 10.0 mi NNW 10.4 mph - N/A   Overcast
9:15 PM 41.0 °F 35.2 °F 32.0 °F 70% 30.03 in 10.0 mi NNW 9.2 mph - N/A   Overcast
9:35 PM 39.2 °F 32.5 °F 32.0 °F 75% 30.03 in 10.0 mi NNW 10.4 mph - N/A   Overcast
9:55 PM 39.2 °F 33.6 °F 32.0 °F 75% 30.03 in 10.0 mi NNW 8.1 mph - N/A   Overcast
10:15 PM 39.2 °F 33.0 °F 32.0 °F 75% 30.03 in 10.0 mi NNW 9.2 mph - N/A   Overcast
10:35 PM 39.2 °F 35.0 °F 32.0 °F 75% 30.03 in 10.0 mi NW 5.8 mph - N/A   Overcast
10:55 PM 37.4 °F 32.8 °F 32.0 °F 81% 30.03 in 10.0 mi NW 5.8 mph - N/A   Overcast
11:15 PM 37.4 °F 32.8 °F 32.0 °F 81% 30.04 in 10.0 mi NW 5.8 mph - N/A   Overcast
11:35 PM 37.4 °F 33.8 °F 32.0 °F 81% 30.03 in 10.0 mi NW 4.6 mph - N/A   Overcast
11:55 PM 37.4 °F 33.8 °F 32.0 °F 81% 30.04 in 10.0 mi NW 4.6 mph - N/A   Overcast